Location: Unspecified
(0.0000°N, 0.0000°E)
Time: 08:17:09
(UTC+00:00)

Transit 4A - Pass Details

Date: 03 October 2023
Orbit: 864 x 979 km, 66.8° (Epoch: 05 December)

Event Time Altitude Azimuth Distance (km) Brightness Sun altitude
Rises 08:51:16 0° 199° (SSW) 3,539 10.8 45.4°
Reaches altitude 10° 08:53:45 10° 198° (SSW) 2,612 10.3 46.0°
Maximum altitude 08:59:51 87° 109° (ESE) 944 9.0 47.5°
Drops below altitude 10° 09:06:07 10° 20° (NNE) 2,679 10.6 49.1°
Sets 09:08:41 0° 20° (NNE) 3,636 11.1 49.7°
